FW9034 Weather Reports


time (UTC)temp
F
wind
direction
speed
knots
gust
knots
rain 1hr
in
rain 24hr
in
rain mn
in
humidity
%
barometer
mb
20260507180504 57 257 6.1 7.8 0.00 0.00 0.00 39 908.5
20260507180001 58 204 4.3 5.2 0.00 0.00 0.00 40 908.6
20260507175457 57 277 3.5 4.3 0.00 0.00 0.00 39 908.6
20260507174955 55 215 3.5 5.2 0.00 0.00 0.00 40 908.7
20260507174452 56 235 5.2 7.0 0.00 0.00 0.00 40 908.8
20260507173950 56 47 1.7 2.6 0.00 0.00 0.00 39 908.7
20260507173447 56 312 4.3 7.8 0.00 0.00 0.00 39 908.9
20260507172944 56 206 3.5 4.3 0.00 0.00 0.00 39 908.8
20260507172440 56 352 2.6 4.3 0.00 0.00 0.00 41 908.8
20260507171936 55 214 3.5 4.3 0.00 0.00 0.00 41 908.8
20260507171432 56 271 2.6 3.5 0.00 0.00 0.00 41 908.7
20260507170930 55 261 1.7 4.3 0.00 0.00 0.00 42 908.7
20260507170426 55 179 7.0 8.7 0.00 0.00 0.00 42 908.7
20260507165923 55 219 3.5 5.2 0.00 0.00 0.00 41 908.6
20260507165419 55 246 4.3 7.0 0.00 0.00 0.00 43 908.4
20260507164914 54 9 1.7 3.5 0.00 0.00 0.00 43 908.6
20260507164412 54 321 4.3 7.0 0.00 0.00 0.00 42 908.9
20260507163909 54 216 8.7 11.3 0.00 0.00 0.00 42 908.8
20260507163406 54 50 2.6 5.2 0.00 0.00 0.00 42 908.8
20260507162903 53 158 5.2 7.0 0.00 0.00 0.00 42 908.8
20260507162358 53 266 4.3 5.2 0.00 0.00 0.00 43 908.8
20260507161856 52 264 2.6 3.5 0.00 0.00 0.00 45 908.9
20260507161352 51 217 2.6 4.3 0.00 0.00 0.00 44 908.9
20260507160849 50 267 2.6 3.5 0.00 0.00 0.00 46 909.0
20260507160344 51 348 2.6 2.6 0.00 0.00 0.00 45 908.9
20260507155841 50 256 0.9 0.9 0.00 0.00 0.00 47 908.6
20260507155336 50 253 2.6 4.3 0.00 0.00 0.00 47 908.8
20260507154833 50 338 3.5 4.3 0.00 0.00 0.00 47 908.9
20260507154331 49 308 2.6 4.3 0.00 0.00 0.00 48 909.0
20260507153828 49 338 1.7 2.6 0.00 0.00 0.00 48 909.4
20260507153324 50 299 2.6 3.5 0.00 0.00 0.00 46 909.5
20260507152821 51 335 4.3 5.2 0.00 0.00 0.00 45 909.4
20260507152317 50 307 1.7 2.6 0.00 0.00 0.00 45 909.5
20260507151813 50 339 5.2 7.8 0.00 0.00 0.00 45 909.5
20260507151309 50 340 1.7 4.3 0.00 0.00 0.00 45 909.6
20260507150806 50 294 5.2 8.7 0.00 0.00 0.00 45 909.6
20260507150303 49 310 4.3 7.0 0.00 0.00 0.00 46 909.1
20260507145759 49 274 2.6 4.3 0.00 0.00 0.00 46 909.4
20260507145256 48 257 2.6 3.5 0.00 0.00 0.00 47 909.0
20260507144753 48 280 2.6 3.5 0.00 0.00 0.00 46 909.1
20260507144250 48 333 5.2 7.8 0.00 0.00 0.00 46 909.3
20260507143746 48 252 3.5 5.2 0.00 0.00 0.00 46 909.5
20260507143244 47 279 5.2 7.0 0.00 0.00 0.00 47 909.1
20260507142740 47 188 5.2 9.6 0.00 0.00 0.00 47 909.4
20260507142237 47 282 3.5 5.2 0.00 0.00 0.00 48 909.1
20260507141733 47 301 5.2 7.8 0.00 0.00 0.00 48 909.1
20260507141230 47 327 4.3 5.2 0.00 0.00 0.00 48 908.8
20260507140726 47 244 7.0 7.8 0.00 0.00 0.00 48 908.9
20260507140224 46 59 3.5 5.2 0.00 0.00 0.00 49 908.8
20260507135721 46 38 6.1 7.8 0.00 0.00 0.00 49 908.6
20260507135218 45 247 3.5 4.3 0.00 0.00 0.00 50 908.7
20260507134714 45 293 3.5 4.3 0.00 0.00 0.00 51 908.8
20260507134211 45 349 6.1 7.8 0.00 0.00 0.00 51 908.6
20260507133707 44 225 1.7 3.5 0.00 0.00 0.00 52 908.7
20260507133204 44 262 3.5 5.2 0.00 0.00 0.00 52 908.6
20260507132701 44 266 6.1 7.8 0.00 0.00 0.00 52 908.4
20260507132157 44 328 4.3 7.0 0.00 0.00 0.00 52 908.6
20260507131654 44 312 2.6 3.5 0.00 0.00 0.00 52 908.5
20260507131152 44 244 4.3 5.2 0.00 0.00 0.00 51 908.4
20260507130648 44 275 6.1 7.8 0.00 0.00 0.00 50 908.2
20260507130146 44 18 4.3 7.0 0.00 0.00 0.00 50 908.1
20260507125644 44 239 5.2 7.8 0.00 0.00 0.00 50 907.9
20260507125142 44 201 5.2 7.8 0.00 0.00 0.00 51 908.3
20260507124638 44 308 4.3 8.7 0.00 0.00 0.00 51 907.9
20260507124136 44 294 4.3 5.2 0.00 0.00 0.00 51 907.9
20260507123634 44 310 4.3 7.8 0.00 0.00 0.00 51 908.1
20260507123130 44 228 4.3 7.0 0.00 0.00 0.00 51 908.1
20260507122626 43 263 6.1 9.6 0.00 0.00 0.00 52 907.8
20260507122122 43 264 5.2 7.8 0.00 0.00 0.00 53 907.7
20260507121618 43 239 6.1 11.3 0.00 0.00 0.00 52 907.9
20260507121114 43 286 4.3 5.2 0.00 0.00 0.00 52 907.8
20260507120610 42 241 5.2 12.2 0.00 0.00 0.00 53 907.6
20260507120107 42 349 4.3 7.0 0.00 0.00 0.00 54 907.8
20260507115603 42 289 4.3 7.0 0.00 0.00 0.00 54 907.8
20260507115059 42 271 7.8 8.7 0.00 0.00 0.00 54 907.6
20260507114555 42 326 2.6 4.3 0.00 0.00 0.00 54 907.8
20260507114053 42 3 6.1 9.6 0.00 0.00 0.00 54 907.9
20260507113549 42 299 3.5 4.3 0.00 0.00 0.00 53 907.9
20260507113047 42 297 3.5 4.3 0.00 0.00 0.00 52 907.8
20260507112545 42 272 7.8 9.6 0.00 0.00 0.00 52 907.7
20260507112041 42 77 2.6 3.5 0.00 0.00 0.00 53 907.6
20260507111538 42 55 2.6 3.5 0.00 0.00 0.00 53 907.4
20260507111035 42 355 4.3 8.7 0.00 0.00 0.00 52 907.5
20260507110531 42 268 6.1 9.6 0.00 0.00 0.00 52 907.4
20260507110028 42 249 3.5 4.3 0.00 0.00 0.00 52 907.6
20260507105525 42 258 6.1 8.7 0.00 0.00 0.00 52 907.7
20260507105020 42 226 5.2 8.7 0.00 0.00 0.00 51 907.6
20260507104518 42 295 6.1 11.3 0.00 0.00 0.00 51 907.7
20260507104015 42 311 7.0 8.7 0.00 0.00 0.00 51 907.5
20260507103511 42 27 2.6 3.5 0.00 0.00 0.00 51 907.4
20260507103007 42 228 6.1 8.7 0.00 0.00 0.00 51 907.6
20260507102504 42 221 5.2 7.8 0.00 0.00 0.00 51 907.6
20260507102000 42 260 2.6 3.5 0.00 0.00 0.00 52 907.4
20260507101455 42 9 7.8 11.3 0.00 0.00 0.00 52 907.5
20260507100952 42 56 2.6 3.5 0.00 0.00 0.00 52 907.5
20260507100450 42 340 6.1 8.7 0.00 0.00 0.00 51 907.4
20260507095948 42 1 3.5 5.2 0.00 0.00 0.00 51 907.5
20260507095445 42 258 7.8 11.3 0.00 0.00 0.00 51 907.6
20260507094942 42 292 6.1 7.8 0.00 0.00 0.00 51 907.5
20260507094438 42 282 3.5 4.3 0.00 0.00 0.00 51 907.6
20260507093935 42 200 2.6 3.5 0.00 0.00 0.00 51 908.1
20260507093433 42 306 6.1 8.7 0.00 0.00 0.00 51 907.8
20260507092931 42 207 5.2 7.0 0.00 0.00 0.00 51 907.9
20260507092427 42 273 4.3 5.2 0.00 0.00 0.00 51 907.8
20260507091924 42 273 2.6 4.3 0.00 0.00 0.00 50 907.7
20260507091420 42 271 4.3 5.2 0.00 0.00 0.00 50 907.9
20260507090916 42 274 5.2 8.7 0.00 0.00 0.00 51 908.1
20260507090412 42 276 5.2 7.8 0.00 0.00 0.00 50 907.7
20260507085909 42 8 5.2 7.0 0.00 0.00 0.00 51 907.8
20260507085406 42 285 4.3 7.8 0.00 0.00 0.00 51 908.1
20260507084903 42 269 5.2 7.0 0.00 0.00 0.00 50 907.8
20260507084400 42 285 5.2 8.7 0.00 0.00 0.00 50 907.8
20260507083857 42 281 6.1 7.8 0.00 0.00 0.00 50 907.7
20260507083353 42 17 4.3 9.6 0.00 0.00 0.00 51 907.8
20260507082850 42 296 7.0 9.6 0.00 0.00 0.00 51 907.8
20260507082345 41 263 6.1 7.8 0.00 0.00 0.00 51 907.7
20260507081843 41 3 3.5 7.0 0.00 0.00 0.00 51 907.9
20260507081339 41 299 4.3 4.3 0.00 0.00 0.00 51 908.1
20260507080836 42 248 3.5 5.2 0.00 0.00 0.00 51 907.7
20260507080332 41 275 7.8 11.3 0.00 0.00 0.00 51 907.9
20260507075827 41 222 5.2 7.8 0.00 0.00 0.00 51 907.9
20260507075324 41 229 4.3 8.7 0.00 0.00 0.00 50 907.9
20260507074820 42 300 5.2 7.8 0.00 0.00 0.00 50 908.1
20260507074318 42 202 6.1 7.8 0.00 0.00 0.00 49 907.8
20260507073815 42 264 3.5 4.3 0.00 0.00 0.00 49 907.9
20260507073311 42 279 2.6 3.5 0.00 0.00 0.00 49 908.1
20260507072809 41 256 5.2 5.2 0.00 0.00 0.00 49 907.8
20260507072307 41 263 5.2 9.6 0.00 0.00 0.00 49 907.9
20260507071803 41 281 7.8 9.6 0.00 0.00 0.00 49 908.1
20260507071300 41 253 4.3 5.2 0.00 0.00 0.00 50 908.1
20260507070756 41 307 4.3 8.7 0.00 0.00 0.00 51 908.2
20260507070254 41 271 4.3 7.0 0.00 0.00 0.00 51 908.1
20260507065750 40 251 3.5 7.8 0.00 0.00 0.00 51 908.2
20260507065247 40 302 4.3 7.0 0.00 0.00 0.00 52 908.3
20260507064744 40 270 4.3 7.8 0.00 0.00 0.00 52 908.4
20260507064243 40 36 1.7 3.5 0.00 0.00 0.00 53 908.4
20260507063740 40 256 5.2 9.6 0.00 0.00 0.00 53 908.6
20260507063237 40 341 4.3 5.2 0.00 0.00 0.00 54 908.5
20260507062734 39 21 5.2 7.0 0.00 0.00 0.00 55 908.6
20260507062231 39 230 4.3 5.2 0.00 0.00 0.00 56 908.6
20260507061730 39 295 4.3 5.2 0.00 0.00 0.00 55 908.7
20260507061227 39 220 3.5 5.2 0.00 0.00 0.00 57 908.8
20260507060725 38 282 2.6 3.5 0.00 0.00 0.00 59 909.0
20260507060221 37 332 1.7 2.6 0.00 0.00 0.00 61 909.0
20260507055717 33 210 3.5 5.2 0.00 0.27 0.27 73 908.8
20260507055213 32 204 2.6 3.5 0.00 0.27 0.27 79 909.1
20260507054709 32 226 1.7 2.6 0.00 0.27 0.27 79 908.9
20260507054206 32 194 2.6 2.6 0.00 0.27 0.27 79 909.5
20260507053704 33 208 3.5 4.3 0.00 0.27 0.27 79 908.9
20260507053202 33 190 1.7 3.5 0.00 0.27 0.27 80 909.3
20260507052700 33 192 5.2 7.0 0.00 0.27 0.27 80 909.3
20260507052155 32 205 7.0 7.8 0.00 0.27 0.27 81 909.4
20260507051654 32 205 8.7 9.6 0.00 0.27 0.27 81 909.4
20260507051150 32 209 6.1 7.0 0.00 0.27 0.27 81 909.1
20260507050647 32 243 4.3 5.2 0.00 0.27 0.27 81 909.4
20260507050144 32 209 4.3 5.2 0.00 0.27 0.27 81 909.3
20260507045641 33 191 2.6 3.5 0.00 0.27 0.27 81 909.4
20260507045137 33 207 4.3 5.2 0.00 0.27 0.27 81 909.0
20260507044634 33 230 6.1 7.8 0.00 0.27 0.27 80 909.4
20260507044131 33 211 4.3 7.0 0.00 0.27 0.27 80 909.6
20260507043627 33 232 4.3 4.3 0.00 0.27 0.27 80 909.4
20260507043124 33 209 3.5 4.3 0.00 0.27 0.27 79 909.4
20260507042620 33 221 2.6 3.5 0.00 0.27 0.27 79 909.4
20260507042115 33 202 9.6 11.3 0.00 0.27 0.27 79 909.1
20260507041613 33 210 7.8 8.7 0.00 0.27 0.27 78 909.1
20260507041109 34 230 6.1 7.8 0.00 0.27 0.27 77 909.0
20260507040607 34 226 7.0 9.6 0.00 0.27 0.27 77 909.6
20260507035559 34 197 7.8 8.7 0.00 0.27 0.27 77 909.4
20260507035055 34 194 8.7 9.6 0.00 0.27 0.27 76 909.6
20260507034552 34 222 7.0 7.8 0.00 0.27 0.27 77 909.4
20260507034050 34 218 6.1 8.7 0.00 0.27 0.27 76 909.6
20260507033548 34 207 7.8 9.6 0.00 0.27 0.27 76 909.4
20260507033044 34 206 7.8 9.6 0.00 0.27 0.27 76 909.5
20260507032541 34 217 4.3 5.2 0.00 0.27 0.27 76 909.6
20260507032038 34 179 6.1 7.0 0.00 0.27 0.27 76 909.5
20260507031534 34 200 7.0 8.7 0.00 0.27 0.27 77 909.6
20260507031031 34 203 4.3 4.3 0.00 0.27 0.27 77 909.6
20260507030528 34 220 5.2 5.2 0.00 0.27 0.27 77 909.5
20260507030026 34 217 3.5 5.2 0.00 0.27 0.27 76 909.6
20260507025523 34 208 5.2 5.2 0.00 0.27 0.27 76 909.6
20260507025020 34 209 4.3 4.3 0.00 0.27 0.27 76 909.5
20260507024518 34 204 5.2 5.2 0.00 0.27 0.27 76 909.6
20260507024014 34 216 7.8 8.7 0.00 0.27 0.27 75 909.6
20260507023510 34 223 7.8 9.6 0.00 0.27 0.27 75 909.5
20260507023008 34 199 5.2 7.0 0.00 0.27 0.27 75 909.4
20260507022505 34 208 6.1 7.8 0.00 0.27 0.27 74 909.6
20260507022000 34 216 6.1 7.8 0.00 0.27 0.27 73 909.4
20260507021455 35 215 3.5 4.3 0.00 0.27 0.27 74 909.5
20260507020953 35 208 7.0 7.8 0.00 0.27 0.27 73 909.4
20260507020450 35 221 4.3 5.2 0.00 0.27 0.27 73 909.6
20260507015947 35 220 4.3 4.3 0.00 0.27 0.27 73 909.6
20260507015445 35 212 4.3 4.3 0.00 0.27 0.27 72 909.6
20260507014942 35 220 6.1 7.0 0.00 0.27 0.27 71 909.8
20260507014439 35 212 6.1 7.8 0.00 0.27 0.27 72 909.6
20260507013935 35 176 5.2 7.8 0.00 0.27 0.27 73 909.4
20260507013432 35 200 3.5 4.3 0.00 0.27 0.27 73 909.7
20260507012929 35 233 6.1 7.8 0.00 0.27 0.27 73 909.9
20260507012426 35 218 6.1 7.8 0.00 0.27 0.27 73 909.8
20260507011922 35 222 7.0 8.7 0.00 0.27 0.27 72 909.8
20260507011420 36 219 6.1 9.6 0.00 0.27 0.27 71 909.8
20260507010919 36 219 7.8 7.8 0.00 0.27 0.27 71 909.8
20260507010415 36 204 6.1 9.6 0.00 0.27 0.27 69 909.8
20260507005912 37 217 8.7 11.3 0.00 0.27 0.27 66 909.9
20260507005409 37 225 6.1 7.8 0.00 0.27 0.27 67 909.8
20260507004906 37 200 7.0 8.7 0.00 0.27 0.27 67 909.9
20260507004403 37 220 2.6 4.3 0.00 0.27 0.27 66 909.6
20260507003900 37 217 4.3 5.2 0.00 0.27 0.27 67 909.5
20260507003355 37 227 6.1 7.0 0.00 0.27 0.27 66 909.8
20260507002851 37 207 7.8 8.7 0.00 0.27 0.27 65 909.8
20260507002347 37 204 7.0 7.8 0.00 0.27 0.27 65 909.7
20260507001844 37 220 7.8 11.3 0.00 0.27 0.27 64 909.8
20260507001341 37 203 7.0 8.7 0.00 0.27 0.27 65 910.0
20260507000837 37 207 7.8 11.3 0.00 0.27 0.27 64 909.9
20260507000335 37 223 9.6 13.0 0.00 0.27 0.27 64 910.1
20260506235830 37 213 7.8 9.6 0.00 0.27 0.27 65 909.9
20260506235326 37 201 9.6 11.3 0.00 0.27 0.27 65 910.0
20260506234822 37 217 6.1 7.0 0.00 0.27 0.27 65 910.2
20260506234320 38 205 4.3 5.2 0.00 0.27 0.27 63 910.3
20260506233818 38 225 5.2 5.2 0.00 0.27 0.27 63 910.3
20260506233313 37 219 5.2 7.0 0.00 0.27 0.27 62 910.2
20260506232811 37 210 7.8 9.6 0.00 0.27 0.27 63 910.5
20260506232306 37 240 5.2 7.0 0.00 0.27 0.27 63 910.2
20260506231803 37 207 5.2 5.2 0.00 0.27 0.27 63 910.3
20260506231301 37 214 7.0 7.8 0.00 0.27 0.27 63 910.1
20260506230758 37 201 4.3 5.2 0.00 0.27 0.27 63 910.6
20260506230255 37 213 7.0 8.7 0.00 0.27 0.27 64 910.5
20260506225751 38 219 6.1 7.0 0.00 0.27 0.27 62 910.7
20260506225248 37 206 5.2 7.0 0.00 0.27 0.27 62 910.5
20260506224745 37 196 4.3 4.3 0.00 0.27 0.27 63 910.5
20260506224243 37 228 7.0 8.7 0.00 0.27 0.27 61 910.7
20260506223738 37 207 7.8 8.7 0.00 0.27 0.27 62 910.6
20260506223234 37 218 6.1 7.8 0.00 0.27 0.27 63 910.8
20260506222731 37 167 4.3 4.3 0.00 0.27 0.27 63 910.5
20260506222226 37 201 7.0 7.8 0.00 0.27 0.27 62 910.6
20260506221725 37 169 6.1 7.8 0.00 0.27 0.27 63 910.6
20260506221223 37 206 6.1 7.8 0.00 0.27 0.27 63 910.5
20260506220720 37 199 6.1 7.0 0.00 0.27 0.27 63 910.5
20260506220214 37 215 5.2 5.2 0.00 0.27 0.27 65 910.6
20260506215711 36 212 7.0 7.8 0.00 0.27 0.27 64 910.8
20260506215207 36 189 4.3 5.2 0.00 0.27 0.27 65 910.8
20260506214703 36 219 6.1 7.8 0.00 0.27 0.27 65 910.8
20260506214201 36 198 4.3 5.2 0.00 0.27 0.27 64 911.1
20260506213659 36 225 3.5 4.3 0.00 0.27 0.27 66 911.1
20260506213156 37 205 7.8 12.2 0.00 0.27 0.27 64 911.0
20260506212653 36 217 5.2 5.2 0.00 0.27 0.27 63 911.1
20260506212148 35 222 4.3 7.0 0.00 0.27 0.27 64 911.3
20260506211644 35 208 5.2 7.0 0.00 0.27 0.27 63 911.3
20260506211141 35 209 5.2 7.0 0.00 0.27 0.27 63 911.2
20260506210638 35 185 6.1 7.0 0.00 0.27 0.27 64 911.2
20260506210134 35 212 6.1 7.0 0.00 0.27 0.27 64 911.6
20260506205632 35 206 3.5 7.0 0.05 0.27 0.27 63 911.7
20260506205126 36 190 5.2 7.0 0.12 0.27 0.27 60 911.3
20260506204625 35 180 4.3 5.2 0.07 0.26 0.26 61 911.3
20260506204121 35 197 4.3 5.2 0.05 0.25 0.25 60 911.8
20260506203619 35 192 5.2 7.8 0.12 0.25 0.25 61 911.8
20260506203115 35 190 4.3 5.2 0.12 0.24 0.24 62 911.8
20260506202614 35 188 5.2 7.0 0.05 0.23 0.23 61 911.7
20260506202110 35 193 5.2 5.2 0.14 0.22 0.22 63 911.8
20260506201607 35 186 4.3 4.3 0.14 0.22 0.22 62 911.6
20260506201103 35 190 4.3 5.2 0.05 0.20 0.20 62 911.8
20260506200600 35 179 4.3 7.0 0.07 0.19 0.19 60 911.9
20260506200056 35 163 5.2 7.0 0.07 0.19 0.19 58 911.7
20260506195553 35 198 5.2 5.2 0.00 0.18 0.18 60 912.0
20260506195049 35 208 4.3 5.2 0.05 0.18 0.18 60 911.9
20260506194548 34 179 5.2 7.0 0.05 0.18 0.18 60 912.0
20260506194043 34 172 3.5 4.3 0.07 0.17 0.17 61 912.1
20260506193541 35 210 5.2 7.0 0.12 0.17 0.17 55 911.9
20260506193038 35 206 6.1 7.0 0.05 0.16 0.16 58 912.1
20260506192535 35 207 5.2 5.2 0.07 0.15 0.15 57 911.8
20260506192031 35 213 3.5 4.3 0.12 0.15 0.15 58 911.7
20260506191528 35 261 2.6 2.6 0.12 0.14 0.14 60 911.9
20260506191024 35 350 4.3 5.2 0.12 0.13 0.13 72 912.1
20260506190521 35 195 5.2 7.0 0.12 0.12 0.12 68 911.8
20260506190019 34 220 0.9 2.6 0.12 0.11 0.11 62 911.9
20260506185515 34 168 0.9 0.9 0.19 0.10 0.10 68 911.9
20260506185012 34 162 3.5 3.5 0.19 0.09 0.09 68 912.1
20260506184509 34 213 1.7 2.6 0.05 0.07 0.07 70 912.1
20260506184006 35 207 1.7 4.3 0.07 0.06 0.06 75 912.2
20260506183502 35 201 4.3 5.2 0.05 0.05 0.05 71 912.4
20260506182959 34 185 4.3 5.2 0.12 0.05 0.05 69 912.3
20260506182456 34 212 2.6 3.5 0.12 0.04 0.04 71 912.4
20260506181953 34 200 0.9 2.6 0.05 0.03 0.03 73 912.3
20260506181451 34 198 2.6 3.5 0.12 0.03 0.03 73 912.3
20260506180948 34 173 4.3 5.2 0.07 0.02 0.02 74 912.2